EW5738 Weather Reports


Display with metric or nautical units.
time (UTC)temp
F
wind
direction
speed
MPH
gust
MPH
rain 1hr
in
rain 24hr
in
rain mn
in
humidity
%
barometer
mb
20260905170004 62 284 1.0 3.0 0.00 0.00 0.00 94 1015.7
20260905164601 62 284 1.0 3.0 0.00 0.00 0.00 94 1015.7
20260905163057 63 306 1.0 2.0 0.00 0.00 0.00 94 1015.9
20260905161603 63 314 1.0 2.0 0.00 0.00 0.00 95 1015.9
20260905160054 62 306 1.0 2.0 0.00 0.00 0.00 94 1016.0
20260905154602 63 340 0.0 2.0 0.00 0.00 0.00 94 1016.2
20260905153148 63 306 1.0 2.0 0.00 0.00 0.00 94 1016.4
20260905151545 63 314 1.0 3.0 0.00 0.00 0.00 94 1016.5
20260905150043 63 324 0.0 3.0 0.00 0.00 0.00 93 1016.5
20260905144542 64 184 3.0 5.0 0.00 0.00 0.00 93 1016.6
20260905143040 64 269 1.0 3.0 0.00 0.00 0.00 93 1016.5
20260905141536 65 1 0.0 2.0 0.00 0.00 0.00 93 1016.8
20260905140036 65 290 1.0 2.0 0.00 0.00 0.00 93 1016.9
20260905134537 65 283 1.0 2.0 0.00 0.00 0.00 93 1016.9
20260905133032 65 193 1.0 3.0 0.00 0.00 0.00 92 1016.9
20260905131531 65 296 2.0 4.0 0.00 0.00 0.00 93 1016.9
20260905130032 66 290 1.0 2.0 0.00 0.00 0.00 92 1016.9
20260905124529 66 197 0.0 2.0 0.00 0.00 0.00 91 1016.9
20260905123027 67 1 0.0 2.0 0.00 0.00 0.00 92 1016.9
20260905121527 67 331 0.0 2.0 0.00 0.00 0.00 92 1016.9
20260905120026 67 331 1.0 2.0 0.00 0.00 0.00 91 1017.1
20260905114520 67 314 1.0 3.0 0.00 0.00 0.00 89 1017.2
20260905113020 67 28 1.0 3.0 0.00 0.00 0.00 90 1017.2
20260905111520 68 331 2.0 3.0 0.00 0.00 0.00 88 1017.2
20260905110017 69 1 0.0 2.0 0.00 0.00 0.00 88 1017.2
20260905104516 69 1 1.0 3.0 0.00 0.00 0.00 87 1017.2
20260905103016 70 342 2.0 3.0 0.00 0.00 0.00 86 1017.2
20260905101517 70 8 2.0 3.0 0.00 0.00 0.00 86 1017.2
20260905100020 70 324 2.0 4.0 0.00 0.00 0.00 86 1017.1
20260905094512 70 340 2.0 5.0 0.00 0.00 0.00 86 1017.2
20260905093011 70 340 3.0 6.0 0.00 0.00 0.00 86 1017.2
20260905090007 70 314 2.0 3.0 0.00 0.00 0.00 83 1017.0
20260905084506 71 279 2.0 4.0 0.00 0.00 0.00 82 1016.8
20260905083006 72 342 2.0 6.0 0.00 0.00 0.00 80 1016.8
20260905081506 72 15 3.0 7.0 0.00 0.00 0.00 79 1016.8
20260905080003 73 352 2.0 6.0 0.00 0.00 0.00 80 1016.6
20260905074503 73 352 2.0 4.0 0.00 0.00 0.00 80 1016.6
20260905073003 74 349 2.0 4.0 0.00 0.00 0.00 78 1016.5
20260905071612 75 46 1.0 4.0 0.00 0.00 0.00 76 1016.3
20260905070110 76 1 1.0 5.0 0.00 0.00 0.00 74 1016.2
20260905064559 76 178 2.0 5.0 0.00 0.00 0.00 72 1016.2
20260905063100 77 344 1.0 5.0 0.00 0.00 0.00 70 1016.1
20260905061613 78 1 3.0 6.0 0.00 0.00 0.00 68 1016.0
20260905060056 79 89 2.0 5.0 0.00 0.00 0.00 65 1015.9
20260905054558 80 1 2.0 7.0 0.00 0.00 0.00 63 1016.0
20260905053051 80 344 2.0 7.0 0.00 0.00 0.00 65 1016.1
20260905051549 82 4 4.0 7.0 0.00 0.00 0.00 60 1016.2
20260905050048 82 335 4.0 7.0 0.00 0.00 0.00 60 1016.2
20260905044545 82 341 2.0 9.0 0.00 0.00 0.00 60 1016.4
20260905043047 82 349 3.0 6.0 0.00 0.00 0.00 58 1016.5
20260905041543 82 335 3.0 7.0 0.00 0.00 0.00 57 1016.7
20260905040036 82 345 1.0 8.0 0.00 0.00 0.00 59 1016.9
20260905034538 83 1 1.0 6.0 0.00 0.00 0.00 57 1017.1
20260905033032 82 340 2.0 10.0 0.00 0.00 0.00 55 1017.3
20260905031526 82 32 2.0 6.0 0.00 0.00 0.00 58 1017.7
20260905030029 83 347 2.0 8.0 0.00 0.00 0.00 58 1018.0
20260905024521 82 20 2.0 7.0 0.00 0.00 0.00 56 1018.3
20260905023027 81 114 4.0 8.0 0.00 0.00 0.00 60 1018.8
20260905021514 80 349 3.0 8.0 0.00 0.00 0.00 62 1019.0
20260905020014 79 1 3.0 6.0 0.00 0.00 0.00 65 1019.3
20260905014508 79 9 4.0 9.0 0.00 0.00 0.00 68 1019.8
20260905013004 78 314 1.0 7.0 0.00 0.00 0.00 68 1020.2
20260905011608 78 351 4.0 7.0 0.00 0.00 0.00 69 1020.6
20260905010109 77 290 1.0 6.0 0.00 0.00 0.00 70 1020.7
20260905004553 76 1 2.0 6.0 0.00 0.00 0.00 71 1021.0
20260905003049 75 295 1.0 5.0 0.00 0.00 0.00 73 1021.2
20260905001545 74 201 2.0 4.0 0.00 0.00 0.00 74 1021.5
20260905000042 73 164 1.0 5.0 0.00 0.00 0.00 77 1021.8
20260904234544 72 112 1.0 4.0 0.00 0.00 0.00 79 1021.9
20260904233036 71 351 1.0 6.0 0.00 0.00 0.00 81 1022.2
20260904231529 70 152 1.0 6.0 0.00 0.00 0.00 84 1022.2
20260904230026 69 135 3.0 6.0 0.00 0.00 0.00 86 1022.3
20260904224523 68 144 1.0 5.0 0.00 0.00 0.00 88 1022.2
20260904223021 67 178 3.0 7.0 0.00 0.00 0.00 89 1022.3
20260904221518 67 132 2.0 8.0 0.00 0.00 0.00 90 1022.2
20260904204535 62 142 1.0 4.0 0.00 0.00 0.00 95 1021.6
20260904203041 62 164 1.0 3.0 0.00 0.00 0.00 95 1021.4
20260904201529 61 188 1.0 3.0 0.00 0.00 0.00 95 1021.4
20260904200128 61 152 0.0 2.0 0.00 0.00 0.00 95 1021.3
20260904194525 61 314 1.0 2.0 0.00 0.00 0.00 94 1021.2
20260904193028 61 188 0.0 2.0 0.00 0.00 0.00 94 1021.1
20260904191522 62 295 1.0 4.0 0.00 0.00 0.00 95 1021.0
20260904190023 62 314 0.0 2.0 0.00 0.00 0.00 94 1021.0
20260904184519 62 283 2.0 3.0 0.00 0.00 0.00 95 1021.0
20260904183116 62 293 1.0 3.0 0.00 0.00 0.00 95 1020.9
20260904181513 62 281 2.0 4.0 0.00 0.00 0.00 95 1020.9
20260904180015 62 295 2.0 3.0 0.00 0.00 0.00 95 1020.7
20260904174511 61 286 2.0 3.0 0.00 0.00 0.00 94 1020.8
20260904173008 62 300 1.0 3.0 0.00 0.00 0.00 95 1020.8
20260904171507 61 302 1.0 3.0 0.00 0.00 0.00 95 1020.8